Location: Sungai Bunut
(2.6333°N, 113.7333°E)
Time: 01:09:16
(UTC+00:00)

S-56A Canister/Altair - Pass Details

Date: 11 December 2023
Orbit: 640 x 2488 km, 38.9° (Epoch: 24 February)

Event Time Altitude Azimuth Distance (km) Brightness Sun altitude
Rises 12:47:39 0° 261° (W) 4,319 12.3 -35.2°
Reaches altitude 10° 12:52:03 10° 239° (WSW) 3,716 11.8 -36.1°
Maximum altitude 12:57:15 15° 207° (SSW) 3,701 11.4 -37.3°
Drops below altitude 10° 13:03:26 10° 176° (S) 4,529 11.6 -38.7°
Sets 13:10:02 0° 156° (SSE) 5,868 12.1 -40.1°
